Regional Weather Roundup
Issued by NWS

Home | Current Version | Previous Version | Text Only | Print | Product List | Glossary On
Versions: 1 2 3 4 5 6 7 8 9 10 11 12 13 14 15 16 17 18 19 20 21 22 23 24 25 26 27 28 29 30 31 32 33 34 35 36 37 38 39 40 41 42 43 44 45 46 47 48 49 50
000
ASUS43 KMKX 031221
RWRWI

WISCONSIN REGIONAL WEATHER ROUNDUP
NATIONAL WEATHER SERVICE MILWAUKEE/SULLIVAN WI
700 AM CDT FRI JUL 03 2015

NOTE: "FAIR" INDICATES FEW OR NO CLOUDS BELOW 12,000 FEET WITH NO
SIGNIFICANT WEATHER AND/OR OBSTRUCTIONS TO VISIBILITY.

WIZ001-002-006>008-014>016-023>028-031300-
NORTHWEST WISCONSIN

CITY           SKY/WX    TMP DP  RH WIND       PRES   REMARKS
SUPERIOR ARPT  CLOUDY    61  56  85 SW8       29.92S
6HR MIN TEMP:  58; 6HR MAX TEMP:  61;

ASHLAND        PTSUNNY   63  56  78 SW7       29.93S
6HR MIN TEMP:  57; 6HR MAX TEMP:  63;

HAYWARD        MOSUNNY   53  51  93 CALM      29.97S
6HR MIN TEMP:  50; 6HR MAX TEMP:  55;

SIREN          SUNNY     60  55  84 SW3       29.97S
6HR MIN TEMP:  56; 6HR MAX TEMP:  63;

CUMBERLAND     SUNNY     54  52  94 S3        29.98S
RICE LAKE      SUNNY     55  54  95 CALM      30.00S
6HR MIN TEMP:  52; 6HR MAX TEMP:  57;

CHETEK         SUNNY     55  55  99 CALM      29.99S
6HR MIN TEMP:  52; 6HR MAX TEMP:  57;

LADYSMITH      SUNNY     55  53  95 CALM      30.00S
6HR MIN TEMP:  52; 6HR MAX TEMP:  58;

EAU CLAIRE     SUNNY     57  54  89 CALM      29.98S
6HR MIN TEMP:  53; 6HR MAX TEMP:  58;

MENOMONIE      SUNNY     56  56  98 CALM      29.99S
6HR MIN TEMP:  54; 6HR MAX TEMP:  61;

NEW RICHMOND   SUNNY     57  56  97 CALM      29.99R
6HR MIN TEMP:  53; 6HR MAX TEMP:  57;

OSCEOLA        SUNNY     55  55 100 CALM      30.01R
6HR MIN TEMP:  53; 6HR MAX TEMP:  58;

$$

WIZ003>005-009-010-017-018-031300-
NORTH CENTRAL WISCONSIN

CITY           SKY/WX    TMP DP  RH WIND       PRES   REMARKS
MANITOWISH WTR MOSUNNY   55  53  95 W3        29.98R
6HR MIN TEMP:  53; 6HR MAX TEMP:  57;

ARBOR VITAE    SUNNY     57  53  85 SW6       29.98S
6HR MIN TEMP:  54; 6HR MAX TEMP:  59;

WOODRUFF       SUNNY     57  53  85 SW6       29.98S
6HR MIN TEMP:  54; 6HR MAX TEMP:  59;

RHINELANDER    SUNNY     56  50  80 SW5       30.00S
6HR MIN TEMP:  54; 6HR MAX TEMP:  58;

EAGLE RIVER    SUNNY     55  48  76 SW7       29.97F
LAND O LAKES   MOSUNNY   56  52  88 CALM      29.98S
6HR MIN TEMP:  50; 6HR MAX TEMP:  56;

PHILLIPS       SUNNY     55  51  88 SW3       29.99R
6HR MIN TEMP:  53; 6HR MAX TEMP:  58;

TOMAHAWK       SUNNY     50  48  92 CALM      30.00S
6HR MIN TEMP:  45; 6HR MAX TEMP:  53;

MEDFORD        SUNNY     53  50  89 CALM      30.00S
6HR MIN TEMP:  49; 6HR MAX TEMP:  56;

MERRILL        SUNNY     47  47 100 CALM      30.00F
6HR MIN TEMP:  44; 6HR MAX TEMP:  50;

$$

WIZ029-030-035-036-043>047-031300-
CENTRAL WISCONSIN

CITY           SKY/WX    TMP DP  RH WIND       PRES   REMARKS
WAUSAU         SUNNY     53  50  89 E3        29.98F
6HR MIN TEMP:  51; 6HR MAX TEMP:  58;

MOSINEE        SUNNY     52  50  93 CALM      30.01S
MARSHFIELD     SUNNY     54  49  83 CALM      30.00S
6HR MIN TEMP:  52; 6HR MAX TEMP:  58;

STEVENS POINT  SUNNY     48  47  94 CALM      30.01S
6HR MIN TEMP:  44; 6HR MAX TEMP:  51;

WAUPACA        SUNNY     53  52  97 CALM      30.01S
6HR MIN TEMP:  49; 6HR MAX TEMP:  54;

WAUTOMA        SUNNY     51  50  97 CALM      30.02S
6HR MIN TEMP:  46; 6HR MAX TEMP:  51;

WISC RAPIDS    SUNNY     53  49  86 CALM      30.01S
6HR MIN TEMP:  47; 6HR MAX TEMP:  58;

CAMP DOUGLAS   SUNNY     49  49 100 SE5       30.00S
6HR MIN TEMP:  43; 6HR MAX TEMP:  49;

$$

WIZ011>013-019>022-031-037>040-048>050-031300-
NORTHEAST WISCONSIN

CITY           SKY/WX    TMP DP  RH WIND       PRES   REMARKS
ANTIGO         SUNNY     51  49  96 CALM      30.01S
SHAWANO        SUNNY     55  51  88 CALM      29.99F
6HR MIN TEMP:  51; 6HR MAX TEMP:  58;

OCONTO         SUNNY     51  51 100 CALM      29.99S
6HR MIN TEMP:  45; 6HR MAX TEMP:  55;

STURGEON BAY   SUNNY     57  46  67 W3        30.01S
6HR MIN TEMP:  52; 6HR MAX TEMP:  57;

GREEN BAY      SUNNY     55  51  86 CALM      30.00S
6HR MIN TEMP:  51; 6HR MAX TEMP:  56;

MANITOWOC      SUNNY     55  50  83 MISG      30.00S
6HR MIN TEMP:  49; 6HR MAX TEMP:  55;

APPLETON       SUNNY     54  52  94 W6        30.01S
CLINTONVILLE   SUNNY     54  52  94 CALM      29.99F
OSHKOSH        MOSUNNY   56  49  77 W3        30.01R
6HR MIN TEMP:  50; 6HR MAX TEMP:  56;

$$

WIZ032>034-041-042-053>061-031300-
SOUTHWEST WISCONSIN

CITY           SKY/WX    TMP DP  RH WIND       PRES   REMARKS
LA CROSSE      PTSUNNY   56  56 100 SE7       29.99F FOG
6HR MIN TEMP:  54; 6HR MAX TEMP:  59;

SPARTA         SUNNY     47  46  95 CALM      30.01S
6HR MIN TEMP:  43; 6HR MAX TEMP:  49;

VIROQUA        SUNNY     56  55  96 S3        30.01F
6HR MIN TEMP:  53; 6HR MAX TEMP:  58;

BOSCOBEL       FOG       55  54  96 CALM      30.02S VSB<1/4
6HR MIN TEMP:  52; 6HR MAX TEMP:  56;

PRAIRIE DU CHI FOG       53  52  96 CALM      30.01S VSB 1/4
6HR MIN TEMP:  53; 6HR MAX TEMP:  56;

PLATTEVILLE    MOSUNNY   53  52  95 N3        30.01R
6HR MIN TEMP:  51; 6HR MAX TEMP:  59;

$$

WIZ056-057-062-063-064-067-068-031300-
SOUTH CENTRAL WISCONSIN

CITY           SKY/WX    TMP DP  RH WIND       PRES   REMARKS
REEDSBURG      MOSUNNY   51  51  99 CALM      30.02R
6HR MIN TEMP:  48; 6HR MAX TEMP:  54;

BARABOO/DELLS  MOSUNNY   52  50  92 CALM      30.02S
6HR MIN TEMP:  48; 6HR MAX TEMP:  53;

LONE ROCK      FOG       52  51  97 CALM      30.02S VSB 1/4
6HR MIN TEMP:  49; 6HR MAX TEMP:  54;

MINERAL POINT  MOSUNNY   54  50  87 CALM      30.01S
MADISON        PTSUNNY   53  49  86 CALM      30.00F
6HR MIN TEMP:  49; 6HR MAX TEMP:  58;

MIDDLETON      MOSUNNY   53  53  99 CALM      30.02R
6HR MIN TEMP:  49; 6HR MAX TEMP:  53;

WATERTOWN      PTSUNNY   53  52  95 CALM      30.01R
6HR MIN TEMP:  49; 6HR MAX TEMP:  53;

MONROE         PTSUNNY   54  50  87 N7        30.00R
JANESVILLE     SUNNY     55  54  94 CALM      29.99R
$$

WIZ051-052-058>065-066-070>072-031300-
SOUTHEAST WISCONSIN

CITY           SKY/WX    TMP DP  RH WIND       PRES   REMARKS
MILWAUKEE      PTSUNNY   57  49  74 CALM      30.00S
6HR MIN TEMP:  52; 6HR MAX TEMP:  57;

WAUKESHA       SUNNY     52  46  82 CALM      30.01S
MILWAUKEE/TIMM SUNNY     55  46  71 CALM      30.01S
RACINE         PTSUNNY   57  52  83 CALM      30.01S
6HR MIN TEMP:  52; 6HR MAX TEMP:  57;

BURLINGTON     PTSUNNY   51  49  95 CALM      29.99S
6HR MIN TEMP:  46; 6HR MAX TEMP:  51;

KENOSHA        CLOUDY    56  52  86 CALM      29.99S
6HR MIN TEMP:  50; 6HR MAX TEMP:  56;

FOND DU LAC    MOSUNNY   54  49  83 CALM      30.01S
6HR MIN TEMP:  50; 6HR MAX TEMP:  54;

SHEBOYGAN      MOSUNNY   53  49  86 CALM      30.01R
6HR MIN TEMP:  47; 6HR MAX TEMP:  53;

WEST BEND      MOSUNNY   52  48  87 CALM      30.01R
JUNEAU         MOSUNNY   52  49  88 CALM      30.02S
6HR MIN TEMP:  48; 6HR MAX TEMP:  55;

$$

LSZ147-162-031300-
LAKE SUPERIOR

STATION/POSITION TIME  TEMP    WIND        PRES    WAVE
                       AIR SEA DIR/SP/G            HT/PER
                 (UTC) (F)     (DEG/KT/KT) (MB)    (FT/S)
W MID LAKE BUOY  1150   49 38  210/ 14/ 16 1011.4F   2/ 4
DEVILS ISLAND    1200   63     210/  9/ 12 1012.1F
SAXON HARBOR     1100   63     200/  2/  8 1012.9S
$$

LMZ867-665-643>646-031300-
LAKE MICHIGAN

STATION/POSITION TIME  TEMP    WIND        PRES    WAVE
                       AIR SEA DIR/SP/G            HT/PER
                 (UTC) (F)     (DEG/KT/KT) (MB)    (FT/S)



USA.gov is the U.S. government's official web portal to all federal, state and local government web resources and services.